Track OPS 4682 (SNAPSHOT) now! 10-day predictions OPS 4682 (SNAPSHOT) is classified as:
1 01314U 65027A 23271.74351181 .00000029 00000-0 81994-4 0 9990 2 01314 90.2542 344.4745 0030279 1.8199 119.2984 12.91776777502895